HULIANWANG DIGUI-114

基本信息
目录编号:
66953
目录名称:
HULIANWANG DIGUI-114
国际标识:
2025-287A
轨道中心:
EARTH
卫星名称:
HULIANWANG DIGUI-114
卫星全名:
HULIANWANG DIGUI-114
卫星状态:
在轨 (已飞行5 天)
发射日期:
2025-12-08 UTC
国别 :
中国 (PRC)
星等 :
--
轨道信息
数据来源 国际轨道数据 AOE轨道数据
星历时间 2025-12-11T13:43:48+0800
2天前
查看轨道信息
2025-12-12T22:00:00+0800
21小时前
查看轨道信息
半长轴 7382.421km 7382.42km
偏心率 0.0008551 0.0008733
轨道倾角 86.497° 86.495°
近地点辐角 209.448° 204.120°
升交点赤经 346.703° 346.212°
平近点角 150.620° 297.122°
近地点 997.973km 997.837km
远地点 1010.599km 1010.733km
周期 105.210分钟 105.210分钟
每日圈数 13.686883 13.686888
详细信息
使用方式:
暂无
2D轨道图
3D轨道图
轨道高度分析图
轨道倾角分析图
轨道综合分析图
查看轨道综合分析图